Location: Gerlach
(40.6516°N, 119.3568°W)
Time: 22:25:26
(UTC-08:00)

Transit 2A Rocket - Visible Passes

Search period start: 05 February 2023 00:00
Search period end: 15 February 2023 00:00
Orbit: 585 x 915 km, 66.7° (Epoch: 05 February)

Date Brightness Start Highest point End Pass type
(mag) Time Alt. Az. Time Alt. Az. Time Alt. Az.
05 Feb 7.5 06:19:07 10° N 06:23:27 20° NE 06:27:49 10° E visible
06 Feb 7.7 05:36:53 10° N 05:39:50 14° NE 05:42:50 10° ENE visible
08 Feb 7.3 05:52:08 10° N 05:57:04 25° NE 06:02:01 10° E visible
09 Feb 7.7 05:09:40 10° N 05:13:31 17° NE 05:17:26 10° E visible
10 Feb 7.9 04:27:44 10° NNE 04:29:51 12° NE 04:31:59 10° NE visible
10 Feb 6.3 06:08:02 10° NNW 06:13:55 49° NE 06:19:48 10° SE visible
11 Feb 7.0 05:25:13 10° NNW 05:30:36 32° NE 05:36:00 10° ESE visible
12 Feb 7.5 04:42:35 10° N 04:47:09 22° NE 04:51:44 10° E visible
12 Feb 5.4 06:24:19 10° NNW 06:30:27 80° WSW 06:36:29 10° SSE visible
13 Feb 7.9 04:00:15 10° N 04:03:33 15° NE 04:06:52 10° ENE visible
13 Feb 5.8 05:41:16 10° NNW 05:47:20 65° ENE 05:53:21 10° SE visible
14 Feb 8.1 03:19:26 10° NNE 03:19:48 10° NNE 03:20:12 10° NE visible
14 Feb 6.5 04:58:22 10° NNW 05:04:06 41° NE 05:09:48 10° ESE visible
